Manhattan, KS

9:31 AM CDT on June 22, 2017 (GMT -0500)
Manhattan Regional

Weather History for KMHK - October, 2012

Change the Weather History Date:

Tuesday, October 23, 2012

  Actual Average Record
Temperature  
Mean Temperature 71 °F 52 °F  
Max Temperature 89 °F 65 °F 89 °F (2012)
Min Temperature 52 °F 40 °F 21 °F (2006)
Degree Days  
Heating Degree Days 0 13  
Month to date heating degree days 198 213  
Since 1 July heating degree days 280 283  
Cooling Degree Days 6 0  
Month to date cooling degree days 13 21  
Year to date cooling degree days 1777 1358  
Growing Degree Days 20 (Base 50)    
Moisture  
Dew Point 59 °F    
Average Humidity 62    
Maximum Humidity 93    
Minimum Humidity 31    
Precipitation  
Precipitation 0.00 in 0.06 in 0.54 in (2002)
Month to date precipitation 0.43 1.73  
Year to date precipitation 20.64 29.44  
Sea Level Pressure  
Sea Level Pressure 29.71 in    
Wind  
Wind Speed 10 mph (SSW)    
Max Wind Speed 25 mph    
Max Gust Speed 32 mph    
Visibility 9 miles    
Events      
T = Trace of Precipitation, MM = Missing Value Source: NWS Daily Summary

Daily Weather History Graph

Daily Weather History Graph

Search for Another Location

Airport or City:

Trip Planner

Search our weather history database for the weather conditions in past years. The results will help you decide how hot, cold, wet, or windy it might be!

Date:

Astronomy

Oct. 23, 2012 Rise Set
Actual Time 7:45 AM CDT 6:36 PM CDT
Civil Twilight 7:17 AM CDT 7:03 PM CDT
Nautical Twilight 6:46 AM CDT 7:34 PM CDT
Astronomical Twilight 6:15 AM CDT 8:05 PM CDT
Moon 3:18 PM CDT (10/23) 1:40 AM CDT (10/23)
Length of Visible Light 11h 45m
Length of Day
10h 50m
Waxing Gibbous, 67% of the Moon is Illuminated
Oct 23
Waxing Gibbous
Oct 29
Full
Nov 6
Last Quarter
Nov 13
New
Nov 20
First Quarter

Hourly Weather History & Observations

Time (CDT) Temp. Heat Index Dew Point Humidity Pressure Visibility Wind Dir Wind Speed Gust Speed Precip Events Conditions
12:52 AM 53.6 °F - 51.8 °F 94% 29.80 in 5.0 mi Calm Calm - N/A   Clear
1:52 AM 53.1 °F - 52.0 °F 96% 29.78 in 5.0 mi Calm Calm - N/A   Clear
2:34 AM 53.6 °F - 53.6 °F 100% 29.78 in 5.0 mi Calm Calm - N/A   Mostly Cloudy
2:52 AM 55.0 °F - 53.1 °F 93% 29.76 in 5.0 mi Calm Calm - N/A   Overcast
3:15 AM 53.6 °F - 51.8 °F 94% 29.76 in 4.0 mi Calm Calm - N/A   Partly Cloudy
3:33 AM 53.6 °F - 51.8 °F 94% 29.75 in 5.0 mi Calm Calm - N/A   Partly Cloudy
3:52 AM 54.0 °F - 52.0 °F 93% 29.75 in 4.0 mi Calm Calm - N/A   Mostly Cloudy
4:52 AM 60.8 °F - 57.2 °F 88% 29.74 in 10.0 mi Calm Calm - N/A   Overcast
5:40 AM 68.0 °F - 60.8 °F 78% 29.73 in 10.0 mi South 8.1 mph - N/A   Overcast
5:52 AM 69.1 °F - 61.0 °F 75% 29.72 in 10.0 mi South 8.1 mph - N/A   Overcast
6:52 AM 69.1 °F - 62.1 °F 78% 29.72 in 10.0 mi South 6.9 mph - N/A   Overcast
7:35 AM 68.0 °F - 62.6 °F 83% 29.74 in 10.0 mi SSE 4.6 mph - N/A   Overcast
7:52 AM 68.0 °F - 62.1 °F 81% 29.73 in 10.0 mi South 4.6 mph - N/A   Overcast
8:52 AM 70.0 °F - 63.0 °F 78% 29.73 in 10.0 mi South 4.6 mph - N/A   Overcast
9:52 AM 72.0 °F - 64.0 °F 76% 29.73 in 10.0 mi SSW 12.7 mph - N/A   Overcast
10:52 AM 77.0 °F - 63.0 °F 62% 29.72 in 10.0 mi South 12.7 mph 24.2 mph N/A   Mostly Cloudy
11:41 AM 78.8 °F - 62.6 °F 57% 29.71 in 10.0 mi South 18.4 mph 25.3 mph N/A   Scattered Clouds
11:52 AM 79.0 °F - 62.1 °F 56% 29.69 in 10.0 mi South 18.4 mph 25.3 mph N/A   Partly Cloudy
12:52 PM 84.0 °F 84.5 °F 62.1 °F 47% 29.67 in 10.0 mi SSW 15.0 mph 25.3 mph N/A   Clear
1:52 PM 84.9 °F 84.8 °F 60.1 °F 43% 29.64 in 10.0 mi SSW 23.0 mph 32.2 mph N/A   Clear
2:52 PM 87.1 °F 86.5 °F 59.0 °F 39% 29.62 in 10.0 mi SSW 20.7 mph 28.8 mph N/A   Clear
3:52 PM 88.0 °F 87.1 °F 59.0 °F 37% 29.61 in 10.0 mi SW 23.0 mph 31.1 mph N/A   Clear
4:52 PM 88.0 °F 85.9 °F 54.0 °F 31% 29.61 in 10.0 mi SW 18.4 mph 28.8 mph N/A   Clear
5:52 PM 86.0 °F 84.5 °F 55.0 °F 35% 29.62 in 10.0 mi SW 16.1 mph 19.6 mph N/A   Clear
6:52 PM 80.1 °F 80.0 °F 54.0 °F 40% 29.64 in 10.0 mi WSW 5.8 mph - N/A   Clear
7:52 PM 73.0 °F - 54.0 °F 51% 29.67 in 10.0 mi Calm Calm - N/A   Clear
8:52 PM 75.9 °F - 62.1 °F 62% 29.68 in 10.0 mi SSW 9.2 mph - N/A   Clear
9:52 PM 77.0 °F - 64.0 °F 64% 29.69 in 10.0 mi SSW 10.4 mph - N/A   Clear
10:52 PM 73.0 °F - 64.0 °F 73% 29.71 in 10.0 mi SSW 8.1 mph - N/A   Clear
11:52 PM 73.9 °F - 66.0 °F 76% 29.71 in 10.0 mi SSW 15.0 mph - N/A   Clear